Time,TemperatureF,DewpointF,PressureIn,WindDirection,WindDirectionDegrees,WindSpeedMPH,WindSpeedGustMPH,Humidity,HourlyPrecipIn,Conditions,Clouds,dailyrainin,SoftwareType,DateUTC
2013-07-10 00:00:00,73.6,68.4,28.41,SE,146,0.0,3.6,84,0.08,,---,0.20,VWS V14.01,2013-07-10 05:00:00,
2013-07-10 00:05:00,73.6,68.4,28.41,SE,146,0.0,0.0,84,0.04,,---,0.00,VWS V14.01,2013-07-10 05:05:00,
2013-07-10 00:10:00,73.6,68.4,28.41,SE,146,0.0,0.0,84,0.04,,---,0.00,VWS V14.01,2013-07-10 05:10:00,
2013-07-10 00:15:00,73.6,68.4,28.41,SE,146,0.0,0.0,84,0.04,,---,0.00,VWS V14.01,2013-07-10 05:15:00,
2013-07-10 00:20:00,73.6,68.4,28.41,SE,146,0.0,0.0,84,0.04,,---,0.00,VWS V14.01,2013-07-10 05:20:00,
2013-07-10 00:25:00,73.6,68.4,28.41,SE,146,0.0,0.0,84,0.04,,---,0.00,VWS V14.01,2013-07-10 05:25:00,
2013-07-10 00:30:00,73.6,68.4,28.41,NNE,32,0.0,0.0,84,0.04,,---,0.00,VWS V14.01,2013-07-10 05:30:00,
2013-07-10 00:35:00,73.6,68.4,28.41,NNE,19,0.0,0.0,84,0.04,,---,0.00,VWS V14.01,2013-07-10 05:35:00,
2013-07-10 00:41:00,73.6,68.4,28.41,SE,142,3.6,3.6,84,0.04,,---,0.00,VWS V14.01,2013-07-10 05:41:00,
2013-07-10 00:46:00,73.6,68.4,28.41,North,349,3.1,3.6,84,0.04,,---,0.00,VWS V14.01,2013-07-10 05:46:00,
2013-07-10 00:51:00,73.6,68.4,28.41,ENE,76,0.0,3.6,84,0.04,,---,0.00,VWS V14.01,2013-07-10 05:51:00,
2013-07-10 00:56:00,73.6,68.4,28.41,SSE,166,2.7,3.6,84,0.04,,---,0.00,VWS V14.01,2013-07-10 05:56:00,
2013-07-10 01:01:00,73.6,68.4,28.41,South,171,2.2,3.6,84,0.00,,---,0.00,VWS V14.01,2013-07-10 06:01:00,
2013-07-10 01:06:00,73.6,68.4,28.41,SSW,193,2.2,4.5,84,0.00,,---,0.00,VWS V14.01,2013-07-10 06:06:00,
2013-07-10 01:11:00,73.6,68.4,28.41,SSW,202,0.0,4.5,84,0.00,,---,0.00,VWS V14.01,2013-07-10 06:11:00,
2013-07-10 01:16:00,73.6,68.4,28.41,SSW,202,0.0,4.5,84,0.00,,---,0.00,VWS V14.01,2013-07-10 06:16:00,
2013-07-10 01:22:00,73.6,68.4,28.41,SSW,202,0.0,4.5,84,0.00,,---,0.00,VWS V14.01,2013-07-10 06:22:00,
2013-07-10 01:27:00,73.6,68.4,28.41,SSW,202,0.0,4.5,84,0.00,,---,0.00,VWS V14.01,2013-07-10 06:27:00,
2013-07-10 01:32:00,72.0,66.5,28.41,SSW,202,0.0,4.5,83,0.00,,---,0.00,VWS V14.01,2013-07-10 06:32:00,
2013-07-10 01:37:00,72.0,66.5,28.41,SSW,202,0.0,4.5,83,0.00,,---,0.00,VWS V14.01,2013-07-10 06:37:00,
2013-07-10 01:42:00,71.8,66.7,28.41,SSW,202,0.0,4.5,84,0.00,,---,0.00,VWS V14.01,2013-07-10 06:42:00,
2013-07-10 01:47:00,71.8,66.7,28.41,SSW,202,0.0,4.5,84,0.00,,---,0.00,VWS V14.01,2013-07-10 06:47:00,
2013-07-10 01:52:00,71.8,66.7,28.41,SSW,202,0.0,4.5,84,0.00,,---,0.00,VWS V14.01,2013-07-10 06:52:00,
2013-07-10 01:57:00,71.8,66.7,28.41,SSW,202,0.0,4.5,84,0.00,,---,0.00,VWS V14.01,2013-07-10 06:57:00,
2013-07-10 02:03:00,71.8,66.7,28.41,SSW,202,0.0,0.0,84,0.00,,---,0.00,VWS V14.01,2013-07-10 07:03:00,
2013-07-10 02:08:00,71.8,66.7,28.41,SSW,202,0.0,0.0,84,0.00,,---,0.00,VWS V14.01,2013-07-10 07:08:00,
2013-07-10 02:13:00,71.8,66.7,28.41,SSW,202,0.0,0.0,84,0.00,,---,0.00,VWS V14.01,2013-07-10 07:13:00,
2013-07-10 02:18:00,71.8,66.7,28.41,SSW,202,0.0,0.0,84,0.00,,---,0.00,VWS V14.01,2013-07-10 07:18:00,
2013-07-10 02:23:00,71.8,66.7,28.41,SSW,202,0.0,0.0,84,0.00,,---,0.00,VWS V14.01,2013-07-10 07:23:00,
2013-07-10 02:28:00,71.8,66.7,28.41,SSW,202,0.0,0.0,84,0.00,,---,0.00,VWS V14.01,2013-07-10 07:28:00,
2013-07-10 02:33:00,71.8,66.7,28.41,SSW,202,0.0,0.0,84,0.00,,---,0.00,VWS V14.01,2013-07-10 07:33:00,
2013-07-10 02:38:00,71.8,66.7,28.41,SSW,202,0.0,0.0,84,0.00,,---,0.00,VWS V14.01,2013-07-10 07:38:00,
2013-07-10 02:44:00,71.8,66.7,28.41,SSW,202,0.0,0.0,84,0.00,,---,0.00,VWS V14.01,2013-07-10 07:44:00,
2013-07-10 02:49:00,71.8,66.7,28.41,SSW,202,0.0,0.0,84,0.00,,---,0.00,VWS V14.01,2013-07-10 07:49:00,
2013-07-10 02:54:00,71.8,66.7,28.41,SSW,202,0.0,0.0,84,0.00,,---,0.00,VWS V14.01,2013-07-10 07:54:00,
2013-07-10 02:59:00,71.8,66.7,28.41,SSW,202,0.0,0.0,84,0.00,,---,0.00,VWS V14.01,2013-07-10 07:59:00,
2013-07-10 03:04:00,71.8,66.7,28.41,SSW,202,0.0,0.0,84,0.00,,---,0.00,VWS V14.01,2013-07-10 08:04:00,
2013-07-10 03:09:00,71.8,66.7,28.41,SSW,202,0.0,0.0,84,0.00,,---,0.00,VWS V14.01,2013-07-10 08:09:00,
2013-07-10 03:14:00,71.8,66.7,28.41,SSW,202,0.0,0.0,84,0.00,,---,0.00,VWS V14.01,2013-07-10 08:14:00,
2013-07-10 03:19:00,71.8,66.7,28.41,SSW,202,0.0,0.0,84,0.00,,---,0.00,VWS V14.01,2013-07-10 08:19:00,
2013-07-10 03:25:00,71.8,66.7,28.41,WSW,244,2.2,4.0,84,0.00,,---,0.00,VWS V14.01,2013-07-10 08:25:00,
2013-07-10 03:30:00,71.8,66.7,28.41,WSW,244,0.0,4.0,84,0.00,,---,0.00,VWS V14.01,2013-07-10 08:30:00,
2013-07-10 03:35:00,71.8,66.7,28.41,WSW,244,0.0,4.0,84,0.00,,---,0.00,VWS V14.01,2013-07-10 08:35:00,
2013-07-10 03:40:00,71.8,66.7,28.44,WSW,244,2.7,4.0,84,0.00,,---,0.00,VWS V14.01,2013-07-10 08:40:00,
2013-07-10 03:45:00,71.8,66.7,28.44,WNW,285,0.0,4.0,84,0.00,,---,0.00,VWS V14.01,2013-07-10 08:45:00,
2013-07-10 03:50:00,71.8,66.7,28.44,WNW,285,0.0,4.0,84,0.00,,---,0.00,VWS V14.01,2013-07-10 08:50:00,
2013-07-10 03:55:00,71.8,66.7,28.44,WNW,285,0.0,4.0,84,0.00,,---,0.00,VWS V14.01,2013-07-10 08:55:00,
2013-07-10 04:00:00,71.8,66.7,28.44,WNW,285,0.0,0.0,84,0.00,,---,0.00,VWS V14.01,2013-07-10 09:00:00,
2013-07-10 04:05:00,71.8,66.7,28.44,WNW,285,0.0,0.0,84,0.00,,---,0.00,VWS V14.01,2013-07-10 09:05:00,
2013-07-10 04:10:00,71.8,66.7,28.44,WNW,285,0.0,0.0,84,0.00,,---,0.00,VWS V14.01,2013-07-10 09:10:00,
2013-07-10 04:16:00,71.8,66.7,28.44,WNW,285,0.0,0.0,84,0.00,,---,0.00,VWS V14.01,2013-07-10 09:16:00,
2013-07-10 04:21:00,71.8,66.7,28.44,WNW,285,0.0,2.7,84,0.00,,---,0.00,VWS V14.01,2013-07-10 09:21:00,
2013-07-10 04:26:00,71.8,66.7,28.44,WNW,285,0.0,2.7,84,0.00,,---,0.00,VWS V14.01,2013-07-10 09:26:00,
2013-07-10 04:31:00,71.8,66.7,28.44,WNW,285,0.0,2.7,84,0.00,,---,0.00,VWS V14.01,2013-07-10 09:31:00,
2013-07-10 04:36:00,71.8,66.7,28.44,WNW,285,0.0,2.7,84,0.00,,---,0.00,VWS V14.01,2013-07-10 09:36:00,
2013-07-10 04:41:00,71.8,66.7,28.44,WNW,285,0.0,2.7,84,0.00,,---,0.00,VWS V14.01,2013-07-10 09:41:00,
2013-07-10 04:46:00,70.2,67.7,28.44,WNW,285,0.0,2.7,92,0.00,,---,0.00,VWS V14.01,2013-07-10 09:46:00,
2013-07-10 04:51:00,70.2,67.7,28.44,WNW,285,0.0,2.7,92,0.00,,---,0.00,VWS V14.01,2013-07-10 09:51:00,
2013-07-10 04:57:00,70.2,67.7,28.44,WNW,285,0.0,2.7,92,0.00,,---,0.00,VWS V14.01,2013-07-10 09:57:00,
2013-07-10 05:02:00,70.0,67.9,28.44,WNW,285,0.0,0.0,93,0.00,,---,0.00,VWS V14.01,2013-07-10 10:02:00,
2013-07-10 05:07:00,70.0,67.9,28.44,WNW,285,0.0,0.0,93,0.00,,---,0.00,VWS V14.01,2013-07-10 10:07:00,
2013-07-10 05:12:00,70.0,67.9,28.44,WNW,285,0.0,0.0,93,0.00,,---,0.00,VWS V14.01,2013-07-10 10:12:00,
2013-07-10 05:17:00,70.0,67.9,28.44,WNW,285,0.0,0.0,93,0.00,,---,0.00,VWS V14.01,2013-07-10 10:17:00,
2013-07-10 05:22:00,70.0,67.9,28.44,WNW,285,0.0,0.0,93,0.00,,---,0.00,VWS V14.01,2013-07-10 10:22:00,
2013-07-10 05:27:00,70.0,67.9,28.44,WNW,285,0.0,0.0,93,0.00,,---,0.00,VWS V14.01,2013-07-10 10:27:00,
2013-07-10 05:33:00,70.0,67.9,28.44,WNW,285,0.0,3.1,93,0.00,,---,0.00,VWS V14.01,2013-07-10 10:33:00,
2013-07-10 05:38:00,70.0,67.9,28.44,WNW,285,0.0,3.1,93,0.00,,---,0.00,VWS V14.01,2013-07-10 10:38:00,
2013-07-10 05:43:00,70.0,67.9,28.44,WNW,285,0.0,3.1,93,0.00,,---,0.00,VWS V14.01,2013-07-10 10:43:00,
2013-07-10 05:48:00,70.0,67.9,28.44,WNW,285,0.0,3.1,93,0.00,,---,0.00,VWS V14.01,2013-07-10 10:48:00,
2013-07-10 05:53:00,70.0,67.9,28.44,WNW,285,0.0,3.1,93,0.00,,---,0.00,VWS V14.01,2013-07-10 10:53:00,
2013-07-10 05:58:00,70.0,67.9,28.44,WNW,285,0.0,3.1,93,0.00,,---,0.00,VWS V14.01,2013-07-10 10:58:00,
2013-07-10 06:03:00,70.0,67.9,28.44,WNW,285,0.0,0.0,93,0.00,,---,0.00,VWS V14.01,2013-07-10 11:03:00,
2013-07-10 06:08:00,70.0,67.9,28.44,WNW,285,0.0,0.0,93,0.00,,---,0.00,VWS V14.01,2013-07-10 11:08:00,
2013-07-10 06:13:00,70.0,67.9,28.44,WNW,285,0.0,0.0,93,0.00,,---,0.00,VWS V14.01,2013-07-10 11:13:00,
2013-07-10 06:19:00,70.0,67.9,28.44,WNW,285,0.0,0.0,93,0.00,,---,0.00,VWS V14.01,2013-07-10 11:19:00,
2013-07-10 06:24:00,70.0,67.9,28.44,WNW,285,0.0,0.0,93,0.00,,---,0.00,VWS V14.01,2013-07-10 11:24:00,
2013-07-10 06:29:00,70.0,67.9,28.44,WNW,285,0.0,0.0,93,0.00,,---,0.00,VWS V14.01,2013-07-10 11:29:00,
2013-07-10 06:34:00,70.0,67.9,28.44,WNW,285,0.0,0.0,93,0.00,,---,0.00,VWS V14.01,2013-07-10 11:34:00,
2013-07-10 06:39:00,70.0,67.9,28.44,WNW,285,0.0,0.0,93,0.00,,---,0.00,VWS V14.01,2013-07-10 11:39:00,
2013-07-10 06:44:00,70.0,67.9,28.44,WNW,285,0.0,0.0,93,0.00,,---,0.00,VWS V14.01,2013-07-10 11:44:00,
2013-07-10 06:49:00,70.0,67.9,28.44,WNW,285,0.0,0.0,93,0.00,,---,0.00,VWS V14.01,2013-07-10 11:49:00,
2013-07-10 06:54:00,70.0,67.9,28.44,WNW,285,0.0,0.0,93,0.00,,---,0.00,VWS V14.01,2013-07-10 11:54:00,
2013-07-10 07:00:00,70.0,67.9,28.44,WSW,243,0.0,4.0,93,0.00,,---,0.00,VWS V14.01,2013-07-10 12:00:00,
2013-07-10 07:05:00,70.2,68.4,28.44,WSW,243,0.0,0.0,94,0.00,,---,0.00,VWS V14.01,2013-07-10 12:05:00,
2013-07-10 07:10:00,70.2,68.4,28.44,WSW,243,0.0,2.2,94,0.00,,---,0.00,VWS V14.01,2013-07-10 12:10:00,
2013-07-10 07:15:00,70.2,68.4,28.44,WSW,243,0.0,2.2,94,0.00,,---,0.00,VWS V14.01,2013-07-10 12:15:00,
2013-07-10 07:20:00,70.2,68.4,28.44,WSW,243,0.0,3.6,94,0.00,,---,0.00,VWS V14.01,2013-07-10 12:20:00,
2013-07-10 07:25:00,70.2,68.4,28.47,WSW,243,0.0,3.6,94,0.00,,---,0.00,VWS V14.01,2013-07-10 12:25:00,
2013-07-10 07:30:00,70.2,68.4,28.47,WSW,243,0.0,3.6,94,0.00,,---,0.00,VWS V14.01,2013-07-10 12:30:00,
2013-07-10 07:35:00,70.2,68.4,28.47,WSW,243,0.0,3.6,94,0.00,,---,0.00,VWS V14.01,2013-07-10 12:35:00,
2013-07-10 07:41:00,70.2,68.4,28.47,WSW,243,0.0,3.6,94,0.00,,---,0.00,VWS V14.01,2013-07-10 12:41:00,
2013-07-10 07:46:00,70.2,68.4,28.47,WSW,243,0.0,3.6,94,0.00,,---,0.00,VWS V14.01,2013-07-10 12:46:00,
2013-07-10 07:51:00,70.2,68.4,28.47,WSW,243,0.0,3.6,94,0.00,,---,0.00,VWS V14.01,2013-07-10 12:51:00,
2013-07-10 07:56:00,70.2,68.4,28.47,WSW,243,0.0,3.6,94,0.00,,---,0.00,VWS V14.01,2013-07-10 12:56:00,
2013-07-10 08:01:00,70.2,68.4,28.47,WSW,243,0.0,0.0,94,0.00,,---,0.00,VWS V14.01,2013-07-10 13:01:00,
2013-07-10 08:06:00,70.2,68.4,28.47,WSW,243,0.0,0.0,94,0.00,,---,0.00,VWS V14.01,2013-07-10 13:06:00,
2013-07-10 08:11:00,70.2,68.4,28.47,WSW,243,0.0,0.0,94,0.00,,---,0.00,VWS V14.01,2013-07-10 13:11:00,
2013-07-10 08:16:00,70.2,68.4,28.47,WSW,243,0.0,0.0,94,0.00,,---,0.00,VWS V14.01,2013-07-10 13:16:00,
2013-07-10 08:22:00,70.2,68.4,28.47,WSW,243,0.0,0.0,94,0.00,,---,0.00,VWS V14.01,2013-07-10 13:22:00,
2013-07-10 08:27:00,70.2,68.4,28.47,WSW,243,0.0,0.0,94,0.00,,---,0.00,VWS V14.01,2013-07-10 13:27:00,
2013-07-10 08:32:00,70.2,68.4,28.47,WSW,243,0.0,0.0,94,0.00,,---,0.00,VWS V14.01,2013-07-10 13:32:00,
2013-07-10 08:37:00,70.2,68.4,28.47,WSW,243,0.0,0.0,94,0.00,,---,0.00,VWS V14.01,2013-07-10 13:37:00,
2013-07-10 08:42:00,70.2,68.4,28.47,NNE,27,0.0,2.7,94,0.00,,---,0.00,VWS V14.01,2013-07-10 13:42:00,
2013-07-10 08:47:00,70.2,68.4,28.47,NNE,27,0.0,2.7,94,0.00,,---,0.00,VWS V14.01,2013-07-10 13:47:00,
2013-07-10 08:52:00,70.2,68.4,28.47,North,0,0.0,5.8,94,0.00,,---,0.00,VWS V14.01,2013-07-10 13:52:00,
2013-07-10 08:57:00,70.2,68.4,28.47,NNE,13,3.6,5.8,94,0.00,,---,0.00,VWS V14.01,2013-07-10 13:57:00,
2013-07-10 09:03:00,70.2,68.4,28.47,North,5,0.0,5.4,94,0.00,,---,0.00,VWS V14.01,2013-07-10 14:03:00,
2013-07-10 09:08:00,70.2,68.4,28.47,NNE,17,3.1,6.3,94,0.00,,---,0.00,VWS V14.01,2013-07-10 14:08:00,
2013-07-10 09:13:00,70.2,68.4,28.47,NNE,18,2.2,6.3,94,0.00,,---,0.00,VWS V14.01,2013-07-10 14:13:00,
2013-07-10 09:18:00,70.2,68.4,28.47,NNE,20,5.8,6.3,94,0.00,,---,0.00,VWS V14.01,2013-07-10 14:18:00,
2013-07-10 09:23:00,70.2,68.4,28.47,North,11,11.0,11.0,94,0.00,,---,0.00,VWS V14.01,2013-07-10 14:23:00,
2013-07-10 09:28:00,70.2,68.4,28.47,NNE,16,5.8,11.0,94,0.00,,---,0.00,VWS V14.01,2013-07-10 14:28:00,
2013-07-10 09:33:00,70.2,68.4,28.47,NNE,27,5.8,11.0,94,0.00,,---,0.00,VWS V14.01,2013-07-10 14:33:00,
2013-07-10 09:39:00,70.2,68.4,28.47,NNE,27,3.6,11.0,94,0.00,,---,0.00,VWS V14.01,2013-07-10 14:39:00,
2013-07-10 09:43:00,70.2,68.4,28.47,NNW,342,5.4,11.0,94,0.00,,---,0.00,VWS V14.01,2013-07-10 14:43:00,
2013-07-10 09:49:00,70.2,68.4,28.47,NNE,20,6.3,11.0,94,0.00,,---,0.00,VWS V14.01,2013-07-10 14:49:00,
2013-07-10 09:54:00,84.0,68.7,28.47,NNW,328,2.7,11.0,60,0.00,,---,0.00,VWS V14.01,2013-07-10 14:54:00,
2013-07-10 09:59:00,84.0,68.7,28.47,North,349,5.4,11.0,60,0.00,,---,0.00,VWS V14.01,2013-07-10 14:59:00,
2013-07-10 10:04:00,84.0,68.7,28.47,NNW,346,5.4,7.2,60,0.00,,---,0.00,VWS V14.01,2013-07-10 15:04:00,
2013-07-10 10:09:00,84.0,68.7,28.47,NNE,19,6.3,10.1,60,0.00,,---,0.00,VWS V14.01,2013-07-10 15:09:00,
2013-07-10 10:14:00,84.0,68.7,28.47,NNE,19,5.8,10.1,60,0.00,,---,0.00,VWS V14.01,2013-07-10 15:14:00,
2013-07-10 10:19:00,84.0,68.7,28.47,North,9,2.7,10.1,60,0.00,,---,0.00,VWS V14.01,2013-07-10 15:19:00,
2013-07-10 10:25:00,84.0,68.7,28.47,NNE,15,4.0,11.0,60,0.00,,---,0.00,VWS V14.01,2013-07-10 15:25:00,
2013-07-10 10:30:00,86.0,69.0,28.47,NNE,14,4.9,11.0,57,0.00,,---,0.00,VWS V14.01,2013-07-10 15:30:00,
2013-07-10 10:35:00,86.0,69.0,28.47,North,350,3.6,11.0,57,0.00,,---,0.00,VWS V14.01,2013-07-10 15:35:00,
2013-07-10 10:40:00,86.7,67.6,28.47,North,0,11.0,11.0,53,0.00,,---,0.00,VWS V14.01,2013-07-10 15:40:00,
2013-07-10 10:45:00,86.9,67.2,28.47,NE,53,6.3,11.0,52,0.00,,---,0.00,VWS V14.01,2013-07-10 15:45:00,
2013-07-10 10:50:00,87.4,67.1,28.47,NNE,22,5.4,11.0,51,0.00,,---,0.00,VWS V14.01,2013-07-10 15:50:00,
2013-07-10 10:55:00,87.8,67.4,28.47,East,92,0.0,11.0,51,0.00,,---,0.00,VWS V14.01,2013-07-10 15:55:00,
2013-07-10 11:01:00,87.8,67.4,28.47,NNE,13,8.1,8.1,51,0.00,,---,0.00,VWS V14.01,2013-07-10 16:01:00,
2013-07-10 11:06:00,88.3,66.8,28.47,North,6,2.7,9.2,49,0.00,,---,0.00,VWS V14.01,2013-07-10 16:06:00,
2013-07-10 11:11:00,88.3,66.8,28.47,North,11,6.3,9.2,49,0.00,,---,0.00,VWS V14.01,2013-07-10 16:11:00,
2013-07-10 11:16:00,88.7,67.1,28.47,North,2,3.1,9.2,49,0.00,,---,0.00,VWS V14.01,2013-07-10 16:16:00,
2013-07-10 11:21:00,88.9,66.7,28.47,NNE,32,8.7,10.5,48,0.00,,---,0.00,VWS V14.01,2013-07-10 16:21:00,
2013-07-10 11:26:00,88.7,65.9,28.50,NNE,16,6.3,10.5,47,0.00,,---,0.00,VWS V14.01,2013-07-10 16:26:00,
2013-07-10 11:31:00,88.7,65.9,28.50,SE,128,4.0,10.5,47,0.00,,---,0.00,VWS V14.01,2013-07-10 16:31:00,
2013-07-10 11:37:00,88.7,65.9,28.50,North,0,4.0,10.5,47,0.00,,---,0.00,VWS V14.01,2013-07-10 16:37:00,
2013-07-10 11:42:00,88.7,65.9,28.50,North,353,4.0,10.5,47,0.00,,---,0.00,VWS V14.01,2013-07-10 16:42:00,
2013-07-10 11:47:00,88.7,65.9,28.50,North,11,3.6,10.5,47,0.00,,---,0.00,VWS V14.01,2013-07-10 16:47:00,
2013-07-10 11:52:00,89.8,67.5,28.47,NNE,14,8.7,10.5,48,0.00,,---,0.00,VWS V14.01,2013-07-10 16:52:00,
2013-07-10 11:57:00,89.8,67.5,28.47,NNE,17,7.2,10.5,48,0.00,,---,0.00,VWS V14.01,2013-07-10 16:57:00,
2013-07-10 12:02:00,90.1,65.9,28.47,North,1,4.9,8.3,45,0.00,,---,0.00,VWS V14.01,2013-07-10 17:02:00,
2013-07-10 12:07:00,90.1,65.9,28.50,North,4,5.8,11.0,45,0.00,,---,0.00,VWS V14.01,2013-07-10 17:07:00,
2013-07-10 12:13:00,90.1,66.6,28.50,North,4,3.1,11.0,46,0.00,,---,0.00,VWS V14.01,2013-07-10 17:13:00,
2013-07-10 12:18:00,90.1,66.6,28.50,NNE,30,4.9,12.3,46,0.00,,---,0.00,VWS V14.01,2013-07-10 17:18:00,
2013-07-10 12:23:00,90.7,67.1,28.50,NNW,340,5.8,12.3,46,0.00,,---,0.00,VWS V14.01,2013-07-10 17:23:00,
2013-07-10 12:28:00,90.7,67.1,28.50,NNW,332,5.4,12.3,46,0.00,,---,0.00,VWS V14.01,2013-07-10 17:28:00,
2013-07-10 12:33:00,90.7,67.1,28.50,ESE,102,3.1,12.3,46,0.00,,---,0.00,VWS V14.01,2013-07-10 17:33:00,
2013-07-10 12:38:00,91.0,66.8,28.50,North,8,4.9,12.3,45,0.00,,---,0.00,VWS V14.01,2013-07-10 17:38:00,
2013-07-10 12:43:00,91.0,66.8,28.50,NNE,21,3.1,12.8,45,0.00,,---,0.00,VWS V14.01,2013-07-10 17:43:00,
2013-07-10 12:49:00,91.0,66.1,28.50,NNE,19,4.0,12.8,44,0.00,,---,0.00,VWS V14.01,2013-07-10 17:49:00,
2013-07-10 12:54:00,91.0,66.1,28.50,NE,40,5.4,12.8,44,0.00,,---,0.00,VWS V14.01,2013-07-10 17:54:00,
2013-07-10 12:59:00,91.0,66.1,28.50,North,357,3.1,12.8,44,0.00,,---,0.00,VWS V14.01,2013-07-10 17:59:00,
2013-07-10 13:04:00,91.0,66.1,28.50,NNE,13,6.3,10.1,44,0.00,,---,0.00,VWS V14.01,2013-07-10 18:04:00,
2013-07-10 13:09:00,91.0,66.1,28.50,North,4,7.6,10.1,44,0.00,,---,0.00,VWS V14.01,2013-07-10 18:09:00,
2013-07-10 13:14:00,91.0,66.1,28.50,NNE,24,5.4,10.1,44,0.00,,---,0.00,VWS V14.01,2013-07-10 18:14:00,
2013-07-10 13:19:00,91.0,66.1,28.50,NNW,343,5.4,10.1,44,0.00,,---,0.00,VWS V14.01,2013-07-10 18:19:00,
2013-07-10 13:24:00,91.0,66.1,28.50,North,1,3.1,10.1,44,0.00,,---,0.00,VWS V14.01,2013-07-10 18:24:00,
2013-07-10 13:30:00,91.0,66.1,28.50,NNE,30,5.4,12.8,44,0.00,,---,0.00,VWS V14.01,2013-07-10 18:30:00,
2013-07-10 13:35:00,93.2,65.3,28.50,NNE,31,10.5,12.8,40,0.00,,---,0.00,VWS V14.01,2013-07-10 18:35:00,
2013-07-10 13:40:00,93.2,65.3,28.47,NNE,19,3.6,12.8,40,0.00,,---,0.00,VWS V14.01,2013-07-10 18:40:00,
2013-07-10 13:45:00,93.2,65.3,28.47,NNE,23,5.4,12.8,40,0.00,,---,0.00,VWS V14.01,2013-07-10 18:45:00,
2013-07-10 13:50:00,93.2,65.3,28.47,NNE,33,7.6,12.8,40,0.00,,---,0.00,VWS V14.01,2013-07-10 18:50:00,
2013-07-10 13:55:00,93.2,65.3,28.47,NNE,26,5.8,12.8,40,0.00,,---,0.00,VWS V14.01,2013-07-10 18:55:00,
2013-07-10 14:01:00,93.2,65.3,28.47,North,350,5.4,5.8,40,0.00,,---,0.00,VWS V14.01,2013-07-10 19:01:00,
2013-07-10 14:06:00,93.2,65.3,28.47,North,357,3.6,10.5,40,0.00,,---,0.00,VWS V14.01,2013-07-10 19:06:00,
2013-07-10 14:11:00,92.7,66.9,28.47,NE,38,4.0,10.5,43,0.00,,---,0.00,VWS V14.01,2013-07-10 19:11:00,
2013-07-10 14:16:00,92.7,66.9,28.47,North,8,5.8,10.5,43,0.00,,---,0.00,VWS V14.01,2013-07-10 19:16:00,
2013-07-10 14:21:00,92.8,67.1,28.47,SE,133,0.0,10.5,43,0.00,,---,0.00,VWS V14.01,2013-07-10 19:21:00,
2013-07-10 14:26:00,92.8,67.1,28.47,NNW,344,5.8,13.2,43,0.00,,---,0.00,VWS V14.01,2013-07-10 19:26:00,
2013-07-10 14:31:00,92.8,67.1,28.47,NNE,22,9.2,13.2,43,0.00,,---,0.00,VWS V14.01,2013-07-10 19:31:00,
2013-07-10 14:37:00,92.8,67.1,28.47,North,9,4.0,13.2,43,0.00,,---,0.00,VWS V14.01,2013-07-10 19:37:00,
2013-07-10 14:42:00,92.8,67.1,28.47,North,0,5.4,13.2,43,0.00,,---,0.00,VWS V14.01,2013-07-10 19:42:00,
2013-07-10 14:47:00,93.6,64.9,28.47,NNE,28,2.2,13.2,39,0.00,,---,0.00,VWS V14.01,2013-07-10 19:47:00,
2013-07-10 14:52:00,93.6,64.9,28.47,ENE,60,6.3,13.2,39,0.00,,---,0.00,VWS V14.01,2013-07-10 19:52:00,
2013-07-10 14:57:00,93.6,64.9,28.47,NNE,29,5.8,13.2,39,0.00,,---,0.00,VWS V14.01,2013-07-10 19:57:00,
2013-07-10 15:02:00,93.7,65.8,28.47,ENE,63,4.9,9.6,40,0.00,,---,0.00,VWS V14.01,2013-07-10 20:02:00,
2013-07-10 15:07:00,93.7,65.8,28.47,NNE,28,8.7,11.0,40,0.00,,---,0.00,VWS V14.01,2013-07-10 20:07:00,
2013-07-10 15:12:00,93.7,65.8,28.47,NNE,12,6.3,11.0,40,0.00,,---,0.00,VWS V14.01,2013-07-10 20:12:00,
2013-07-10 15:18:00,93.6,64.9,28.47,NE,38,4.0,11.0,39,0.00,,---,0.00,VWS V14.01,2013-07-10 20:18:00,
2013-07-10 15:23:00,93.7,65.1,28.47,NE,36,7.6,11.0,39,0.00,,---,0.00,VWS V14.01,2013-07-10 20:23:00,
2013-07-10 15:28:00,93.4,64.7,28.47,North,11,0.0,11.0,39,0.00,,---,0.00,VWS V14.01,2013-07-10 20:28:00,
2013-07-10 15:33:00,93.0,64.4,28.47,North,0,0.0,11.0,39,0.00,,---,0.00,VWS V14.01,2013-07-10 20:33:00,
2013-07-10 15:38:00,92.8,65.0,28.47,NNE,19,3.1,11.0,40,0.00,,---,0.00,VWS V14.01,2013-07-10 20:38:00,
2013-07-10 15:43:00,92.8,65.0,28.47,NNE,13,8.1,11.0,40,0.00,,---,0.00,VWS V14.01,2013-07-10 20:43:00,
2013-07-10 15:49:00,92.8,64.3,28.47,North,0,8.1,11.0,39,0.00,,---,0.00,VWS V14.01,2013-07-10 20:49:00,
2013-07-10 15:54:00,92.7,64.1,28.47,North,4,3.6,11.0,39,0.00,,---,0.00,VWS V14.01,2013-07-10 20:54:00,
2013-07-10 15:59:00,92.5,64.7,28.47,NNE,14,3.6,11.0,40,0.00,,---,0.00,VWS V14.01,2013-07-10 20:59:00,
2013-07-10 16:04:00,92.5,63.9,28.47,North,0,6.3,6.7,39,0.00,,---,0.00,VWS V14.01,2013-07-10 21:04:00,
2013-07-10 16:09:00,92.5,64.7,28.47,North,2,5.8,10.5,40,0.00,,---,0.00,VWS V14.01,2013-07-10 21:09:00,
2013-07-10 16:14:00,92.5,64.7,28.47,North,353,3.1,10.5,40,0.00,,---,0.00,VWS V14.01,2013-07-10 21:14:00,
2013-07-10 16:19:00,92.5,64.7,28.47,East,82,5.4,10.5,40,0.00,,---,0.00,VWS V14.01,2013-07-10 21:19:00,
2013-07-10 16:24:00,92.5,64.7,28.44,North,6,4.0,12.3,40,0.00,,---,0.00,VWS V14.01,2013-07-10 21:24:00,
2013-07-10 16:29:00,92.5,64.7,28.44,NNE,25,8.7,12.3,40,0.00,,---,0.00,VWS V14.01,2013-07-10 21:29:00,
2013-07-10 16:35:00,91.9,63.5,28.44,North,0,4.0,12.3,39,0.00,,---,0.00,VWS V14.01,2013-07-10 21:35:00,
2013-07-10 16:36:00,91.9,63.5,28.44,North,11,10.1,12.3,39,0.00,,---,0.00,VWS V14.01,2013-07-10 21:36:00,
2013-07-10 16:41:00,91.9,63.5,28.44,NNE,28,5.8,12.3,39,0.00,,---,0.00,VWS V14.01,2013-07-10 21:41:00,
2013-07-10 16:46:00,91.2,64.2,28.44,North,4,5.8,12.3,41,0.00,,---,0.00,VWS V14.01,2013-07-10 21:46:00,
2013-07-10 16:51:00,91.0,63.4,28.44,NNE,17,4.0,12.3,40,0.00,,---,0.00,VWS V14.01,2013-07-10 21:51:00,
2013-07-10 16:56:00,90.9,63.2,28.44,NNE,14,5.8,12.3,40,0.00,,---,0.00,VWS V14.01,2013-07-10 21:56:00,
2013-07-10 17:01:00,91.0,63.4,28.44,North,9,4.0,8.1,40,0.00,,---,0.00,VWS V14.01,2013-07-10 22:01:00,
2013-07-10 17:06:00,90.9,62.5,28.44,NNE,12,3.1,11.0,39,0.00,,---,0.00,VWS V14.01,2013-07-10 22:06:00,
2013-07-10 17:12:00,90.7,63.1,28.44,North,357,4.0,11.0,40,0.00,,---,0.00,VWS V14.01,2013-07-10 22:12:00,
2013-07-10 17:17:00,90.7,62.3,28.44,NNE,32,5.4,11.0,39,0.00,,---,0.00,VWS V14.01,2013-07-10 22:17:00,
2013-07-10 17:22:00,90.9,62.5,28.41,North,350,7.6,11.0,39,0.00,,---,0.00,VWS V14.01,2013-07-10 22:22:00,
2013-07-10 17:27:00,90.9,62.5,28.41,North,11,7.6,11.0,39,0.00,,---,0.00,VWS V14.01,2013-07-10 22:27:00,
2013-07-10 17:32:00,90.9,62.5,28.41,North,0,4.9,11.0,39,0.00,,---,0.00,VWS V14.01,2013-07-10 22:32:00,
2013-07-10 17:37:00,90.9,61.8,28.41,North,357,4.5,11.0,38,0.00,,---,0.00,VWS V14.01,2013-07-10 22:37:00,
2013-07-10 17:42:00,91.0,61.9,28.41,North,6,4.0,11.0,38,0.00,,---,0.00,VWS V14.01,2013-07-10 22:42:00,
2013-07-10 17:47:00,91.0,61.9,28.41,North,5,3.1,11.0,38,0.00,,---,0.00,VWS V14.01,2013-07-10 22:47:00,
2013-07-10 17:52:00,91.2,61.3,28.41,NE,56,3.1,12.3,37,0.00,,---,0.00,VWS V14.01,2013-07-10 22:52:00,
2013-07-10 17:58:00,91.2,60.6,28.41,North,9,4.0,12.3,36,0.00,,---,0.00,VWS V14.01,2013-07-10 22:58:00,
2013-07-10 18:03:00,91.0,61.2,28.41,NE,41,5.4,8.7,37,0.00,,---,0.00,VWS V14.01,2013-07-10 23:03:00,
2013-07-10 18:08:00,90.9,60.2,28.41,NNW,330,0.0,8.7,36,0.00,,---,0.00,VWS V14.01,2013-07-10 23:08:00,
2013-07-10 18:13:00,90.9,58.6,28.41,NNW,342,3.1,9.6,34,0.00,,---,0.00,VWS V14.01,2013-07-10 23:13:00,
2013-07-10 18:18:00,90.9,58.6,28.41,North,11,6.3,9.6,34,0.00,,---,0.00,VWS V14.01,2013-07-10 23:18:00,
2013-07-10 18:23:00,90.9,57.8,28.41,North,2,5.8,9.6,33,0.00,,---,0.00,VWS V14.01,2013-07-10 23:23:00,
2013-07-10 18:28:00,90.9,57.0,28.41,North,357,2.2,11.0,32,0.00,,---,0.00,VWS V14.01,2013-07-10 23:28:00,
2013-07-10 18:33:00,90.7,55.9,28.41,North,6,7.6,11.0,31,0.00,,---,0.00,VWS V14.01,2013-07-10 23:33:00,
2013-07-10 18:39:00,90.7,56.8,28.41,NE,41,2.7,11.0,32,0.00,,---,0.00,VWS V14.01,2013-07-10 23:39:00,
2013-07-10 18:44:00,90.5,56.6,28.41,North,3,3.6,11.0,32,0.00,,---,0.00,VWS V14.01,2013-07-10 23:44:00,
2013-07-10 18:49:00,90.3,55.6,28.41,NNW,344,3.6,11.0,31,0.00,,---,0.00,VWS V14.01,2013-07-10 23:49:00,
2013-07-10 18:54:00,90.3,55.6,28.41,North,9,4.0,11.0,31,0.00,,---,0.00,VWS V14.01,2013-07-10 23:54:00,
2013-07-10 18:59:00,90.3,55.6,28.41,NNE,21,3.1,11.0,31,0.00,,---,0.00,VWS V14.01,2013-07-10 23:59:00,
2013-07-10 19:04:00,90.1,55.5,28.41,NNE,30,3.1,5.4,31,0.00,,---,0.00,VWS V14.01,2013-07-11 00:04:00,
2013-07-10 19:09:00,90.1,55.5,28.41,NNE,18,3.6,6.3,31,0.00,,---,0.00,VWS V14.01,2013-07-11 00:09:00,
2013-07-10 19:15:00,90.0,55.3,28.41,East,85,2.2,8.1,31,0.00,,---,0.00,VWS V14.01,2013-07-11 00:15:00,
2013-07-10 19:20:00,90.0,55.3,28.41,NNE,12,2.2,8.1,31,0.00,,---,0.00,VWS V14.01,2013-07-11 00:20:00,
2013-07-10 19:25:00,89.8,55.1,28.41,North,353,4.0,8.1,31,0.00,,---,0.00,VWS V14.01,2013-07-11 00:25:00,
2013-07-10 19:30:00,89.6,55.0,28.41,NNE,14,3.6,8.1,31,0.00,,---,0.00,VWS V14.01,2013-07-11 00:30:00,
2013-07-10 19:35:00,89.6,54.1,28.41,NE,53,5.4,9.6,30,0.00,,---,0.00,VWS V14.01,2013-07-11 00:35:00,
2013-07-10 19:40:00,89.4,54.8,28.41,North,353,4.0,9.6,31,0.00,,---,0.00,VWS V14.01,2013-07-11 00:40:00,
2013-07-10 19:45:00,89.1,55.4,28.41,North,357,2.7,9.6,32,0.00,,---,0.00,VWS V14.01,2013-07-11 00:45:00,
2013-07-10 19:51:00,88.7,54.2,28.41,NNE,15,6.3,9.6,31,0.00,,---,0.00,VWS V14.01,2013-07-11 00:51:00,
2013-07-10 19:56:00,88.7,55.1,28.41,North,349,3.6,9.6,32,0.00,,---,0.00,VWS V14.01,2013-07-11 00:56:00,
2013-07-10 20:01:00,88.3,54.8,28.41,NE,54,0.0,0.0,32,0.00,,---,0.00,VWS V14.01,2013-07-11 01:01:00,
2013-07-10 20:06:00,88.2,54.6,28.41,North,357,0.0,5.8,32,0.00,,---,0.00,VWS V14.01,2013-07-11 01:06:00,
2013-07-10 20:11:00,87.8,55.2,28.41,NNW,342,4.0,7.6,33,0.00,,---,0.00,VWS V14.01,2013-07-11 01:11:00,
2013-07-10 20:16:00,87.6,55.8,28.41,NNE,15,4.0,7.6,34,0.00,,---,0.00,VWS V14.01,2013-07-11 01:16:00,
2013-07-10 20:21:00,87.3,55.5,28.41,North,0,2.7,7.6,34,0.00,,---,0.00,VWS V14.01,2013-07-11 01:21:00,
2013-07-10 20:26:00,87.1,55.3,28.41,NNW,342,0.0,7.6,34,0.00,,---,0.00,VWS V14.01,2013-07-11 01:26:00,
2013-07-10 20:32:00,86.7,55.8,28.41,North,7,2.7,8.1,35,0.00,,---,0.00,VWS V14.01,2013-07-11 01:32:00,
2013-07-10 20:37:00,86.4,56.3,28.41,North,7,2.7,8.1,36,0.00,,---,0.00,VWS V14.01,2013-07-11 01:37:00,
2013-07-10 20:42:00,85.8,56.6,28.41,North,7,3.1,8.1,37,0.00,,---,0.00,VWS V14.01,2013-07-11 01:42:00,
2013-07-10 20:47:00,85.6,57.1,28.41,North,5,3.6,8.1,38,0.00,,---,0.00,VWS V14.01,2013-07-11 01:47:00,
2013-07-10 20:52:00,85.3,56.8,28.41,North,357,2.7,8.1,38,0.00,,---,0.00,VWS V14.01,2013-07-11 01:52:00,
2013-07-10 20:57:00,85.3,56.8,28.41,NNW,342,0.0,8.1,38,0.00,,---,0.00,VWS V14.01,2013-07-11 01:57:00,
2013-07-10 21:02:00,85.1,56.7,28.41,North,4,4.5,5.4,38,0.00,,---,0.00,VWS V14.01,2013-07-11 02:02:00,
2013-07-10 21:08:00,84.9,57.2,28.41,North,5,0.0,5.4,39,0.00,,---,0.00,VWS V14.01,2013-07-11 02:08:00,
2013-07-10 21:13:00,84.7,57.1,28.41,North,7,3.6,7.6,39,0.00,,---,0.00,VWS V14.01,2013-07-11 02:13:00,
2013-07-10 21:18:00,84.4,56.7,28.41,North,11,4.0,7.6,39,0.00,,---,0.00,VWS V14.01,2013-07-11 02:18:00,
2013-07-10 21:23:00,84.2,56.6,28.41,North,11,0.0,7.6,39,0.00,,---,0.00,VWS V14.01,2013-07-11 02:23:00,
2013-07-10 21:28:00,84.0,56.4,28.41,NNE,23,4.0,7.6,39,0.00,,---,0.00,VWS V14.01,2013-07-11 02:28:00,
2013-07-10 21:33:00,83.8,57.0,28.41,North,11,3.6,8.1,40,0.00,,---,0.00,VWS V14.01,2013-07-11 02:33:00,
2013-07-10 21:38:00,83.7,56.8,28.41,North,353,3.1,8.1,40,0.00,,---,0.00,VWS V14.01,2013-07-11 02:38:00,
2013-07-10 21:43:00,83.5,56.6,28.41,North,353,4.9,8.7,40,0.00,,---,0.00,VWS V14.01,2013-07-11 02:43:00,
2013-07-10 21:49:00,83.3,56.5,28.41,North,349,2.7,8.7,40,0.00,,---,0.00,VWS V14.01,2013-07-11 02:49:00,
2013-07-10 21:54:00,83.1,56.3,28.41,North,1,3.6,8.7,40,0.00,,---,0.00,VWS V14.01,2013-07-11 02:54:00,
2013-07-10 21:59:00,82.9,56.2,28.41,North,4,4.0,8.7,40,0.00,,---,0.00,VWS V14.01,2013-07-11 02:59:00,
2013-07-10 22:04:00,82.8,56.7,28.41,NNE,16,2.7,4.9,41,0.00,,---,0.00,VWS V14.01,2013-07-11 03:04:00,
2013-07-10 22:09:00,82.4,56.4,28.41,North,4,2.2,6.3,41,0.00,,---,0.00,VWS V14.01,2013-07-11 03:09:00,
2013-07-10 22:14:00,82.2,56.9,28.41,North,8,3.1,6.3,42,0.00,,---,0.00,VWS V14.01,2013-07-11 03:14:00,
2013-07-10 22:19:00,81.7,57.0,28.41,North,353,0.0,6.3,43,0.00,,---,0.00,VWS V14.01,2013-07-11 03:19:00,
2013-07-10 22:24:00,81.5,56.9,28.44,North,3,3.6,8.7,43,0.00,,---,0.00,VWS V14.01,2013-07-11 03:24:00,
2013-07-10 22:30:00,81.1,57.2,28.44,North,2,3.6,8.7,44,0.00,,---,0.00,VWS V14.01,2013-07-11 03:30:00,
2013-07-10 22:35:00,80.8,56.9,28.44,North,349,4.0,8.7,44,0.00,,---,0.00,VWS V14.01,2013-07-11 03:35:00,
2013-07-10 22:40:00,80.6,57.3,28.44,North,3,4.9,8.7,45,0.00,,---,0.00,VWS V14.01,2013-07-11 03:40:00,
2013-07-10 22:45:00,80.2,57.6,28.44,NE,37,7.6,8.7,46,0.00,,---,0.00,VWS V14.01,2013-07-11 03:45:00,
2013-07-10 22:50:00,79.9,57.3,28.44,North,357,4.9,8.7,46,0.00,,---,0.00,VWS V14.01,2013-07-11 03:50:00,
2013-07-10 22:55:00,79.7,57.7,28.44,North,0,3.1,8.7,47,0.00,,---,0.00,VWS V14.01,2013-07-11 03:55:00,
2013-07-10 23:00:00,79.5,57.5,28.44,NNW,335,3.1,3.1,47,0.00,,---,0.00,VWS V14.01,2013-07-11 04:00:00,
2013-07-10 23:01:00,79.5,58.1,28.44,North,11,6.3,6.3,48,0.00,,---,0.00,VWS V14.01,2013-07-11 04:01:00,
2013-07-10 23:02:00,79.5,58.1,28.44,North,6,3.6,6.3,48,0.00,,---,0.00,VWS V14.01,2013-07-11 04:02:00,
2013-07-10 23:05:00,79.3,58.0,28.44,North,357,4.0,6.3,48,0.00,,---,0.00,VWS V14.01,2013-07-11 04:05:00,
2013-07-10 23:10:00,79.0,57.6,28.44,NNE,14,3.6,6.3,48,0.00,,---,0.00,VWS V14.01,2013-07-11 04:10:00,
2013-07-10 23:15:00,78.6,57.9,28.44,NNE,15,3.1,6.3,49,0.00,,---,0.00,VWS V14.01,2013-07-11 04:15:00,
2013-07-10 23:20:00,78.3,58.1,28.44,North,4,3.1,6.3,50,0.00,,---,0.00,VWS V14.01,2013-07-11 04:20:00,
2013-07-10 23:25:00,78.1,58.5,28.44,North,3,0.0,6.3,51,0.00,,---,0.00,VWS V14.01,2013-07-11 04:25:00,
2013-07-10 23:31:00,77.9,58.9,28.44,North,357,0.0,6.3,52,0.00,,---,0.00,VWS V14.01,2013-07-11 04:31:00,
2013-07-10 23:36:00,77.7,58.7,28.44,NNW,340,0.0,6.3,52,0.00,,---,0.00,VWS V14.01,2013-07-11 04:36:00,
2013-07-10 23:41:00,77.4,58.9,28.44,North,350,2.2,6.3,53,0.00,,---,0.00,VWS V14.01,2013-07-11 04:41:00,
2013-07-10 23:46:00,77.2,58.7,28.44,NNE,13,4.9,6.3,53,0.00,,---,0.00,VWS V14.01,2013-07-11 04:46:00,
2013-07-10 23:51:00,77.0,59.1,28.47,North,357,4.0,6.3,54,0.00,,---,0.00,VWS V14.01,2013-07-11 04:51:00,
2013-07-10 23:56:00,76.8,59.5,28.47,NNE,14,3.1,6.3,55,0.00,,---,0.00,VWS V14.01,2013-07-11 04:56:00,